Regional Weather Roundup
Issued by NWS Burlington, VT

Home | Current Version | Previous Version | Text Only | Print | Product List | Glossary On
Versions: 1 2 3 4 5 6 7 8 9 10 11 12 13 14 15 16 17 18 19 20 21 22 23 24 25 26 27 28 29 30 31 32 33 34 35 36 37 38 39 40 41 42 43 44 45 46 47 48 49 50
000
ASUS41 KBTV 290130
RWRBTV
VERMONT REGIONAL WEATHER ROUNDUP
NATIONAL WEATHER SERVICE BURLINGTON VT
900 PM EDT SUN AUG 28 2016

NOTE: "FAIR" INDICATES FEW OR NO CLOUDS BELOW 12,000 FEET WITH NO
SIGNIFICANT WEATHER AND/OR OBSTRUCTIONS TO VISIBILITY.

* THESE REPORTS ARE NOT UNDER NWS QUALITY CONTROL AND/OR DO NOT
  REPORT WEATHER SUCH AS PRECIPITATION AND FOG.

VTZ001>019-290200-
_____VERMONT_____


CITY           SKY/WX    TMP DP  RH WIND       PRES   REMARKS
BURLINGTON     PTCLDY    80  65  59 S8        30.03S
MONTPELIER     CLOUDY    75  65  70 S10       30.12S
MORRISVILLE    LGT RAIN  69  67  93 CALM      30.09F FOG
ST. JOHNSBURY*   N/A     70  64  81 MISG      30.07F
LYNDONVILLE*   RAIN      66  65  96 CALM      30.11  VSB 3/4
MIDDLEBURY*    CLOUDY    79  63  57 S6        30.07S
RUTLAND*       PTCLDY    75  66  73 SE5       30.11S
SPRINGFIELD    PTCLDY    75  66  73 CALM      30.12
HIGHGATE*      MOCLDY    69  68  97 SE6       30.03R
NEWPORT*       CLOUDY    68  66  93 CALM      30.07F
BENNINGTON     PTCLDY    79  61  53 VRB3      30.12S
MT. MANSFIELD*   N/A     64 N/A N/A NW31        N/A

_____LAKE CHAMPLAIN_____


CITY           SKY/WX    TMP DP  RH WIND       PRES   REMARKS
BURTON ISLAND*   N/A     75  70  83 SE3         N/A
COLCHESTER RF*   N/A     75  70  83 NW6         N/A
DIAMOND ISL*     N/A     81  68  65 SW12        N/A

$$

NYZ007-026>031-035-052-083-087-290200-
_____NORTHERN NEW YORK_____


CITY           SKY/WX    TMP DP  RH WIND       PRES   REMARKS
PLATTSBURGH    CLOUDY    70  67  90 CALM      30.03R
SARANAC LAKE   CLOUDY    74  66  76 SW8       30.11R
MASSENA        PTCLDY    74  69  85 SW7       30.03R
OGDENSBURG*    PTCLDY    75  70  83 SW6       30.04R
POTSDAM*       PTCLDY    75  70  83 SW8       30.05R
WATERTOWN      CLEAR     75  69  81 SW8       30.07R
FT DRUM        CLEAR     76  68  75 W8        30.08R
ALBANY         MOCLDY    80  63  55 S8        30.09R
GLENS FALLS    MOCLDY    76  67  73 S6        30.08R

$$
NHZ002-005-011-290200-
_____NEW HAMPSHIRE_____


CITY           SKY/WX    TMP DP  RH WIND       PRES   REMARKS
LEBANON        MOCLDY    73  67  81 S3        30.09S
KEENE          CLEAR     73  65  75 CALM      30.13R
MT WASHINGTON  TSTM      54  54 100 SW40G52     N/A  VSB 0
PLYMOUTH       CLOUDY    74  64  69 E5        30.10F
WHITEFIELD     CLOUDY    70  66  87 CALM      30.12F

$$

_____REGIONAL QUEBEC LOCATIONS_____


CITY           SKY/WX    TMP DP  RH WIND       PRES   REMARKS
MONTREAL       PTCLDY    75  72  88 S21       29.99S
QUEBEC CITY    CLOUDY    66  59  77 NE5       29.99F
SHERBROOKE     CLOUDY    68  66  94 S3        30.05S

_____REGIONAL ONTARIO LOCATIONS_____


CITY           SKY/WX    TMP DP  RH WIND       PRES   REMARKS
OTTAWA         PTCLDY    75  66  73 W7        30.03R

______KEY______
VSB  - VISIBILITY IN MILES
WCI  - WIND CHILL INDEX
HX   - HEAT INDEX
$$
NNNN




USA.gov is the U.S. government's official web portal to all federal, state and local government web resources and services.